Flag for Falkland Islands Weather past 2 weeks in Stanley, Falkland Islands

Now
43 °F

Sunny.


Feels Like: 33 °F
Forecast: N/A
Wind: 28 mph from West

Location: Mount Pleasant Airport

Current Time: Sep 16, 2014 at 6:55:27 PM

Latest Report: Sep 16, 2014 at 5:50 PM


Visibility: 10 mi

Pressure: 29.42 "Hg

Humidity: 57%

Dew point: 28 °F

Location of StanleyLocation

Historic Weather in Stanley — Graph

°F

Stanley temperature yesterday

Maximum temperature yesterday: 48 °F (at 1:50 PM)
Minimum temperature yesterday: 37 °F (at 3:50 AM)
Average temperature yesterday: 42 °F

Past Weeks' High & Low Weather Summary

 TemperatureHumidityPressure
High52 °F (Sep 13, 12:50 PM)100% (Sep 1, 6:50 PM)30.15 "Hg (Sep 1, 6:50 PM)
Low34 °F (Sep 11, 7:50 PM)40% (Sep 15, 1:50 PM)28.97 "Hg (Sep 10, 12:50 AM)
Average42 °F87%29.57 "Hg
* Reported Sep 1 5:50 PM — Sep 16 5:50 PM, Stanley, Weather by CustomWeather, © 2014

Note: Actual official high and low records may vary slightly from our data, if they occured in-between our weather recording intervals... More about our weather records

Advertising

Stanley weather history for previous 24 hours

 ConditionsComfort  
Time TempWeatherWind HumidityBarometerVisibility
5:50 PM
Sep 16
43 °FSunny.28 mph57%29.42 "Hg10 mi
4:50 PM46 °FPassing clouds.26 mph50%29.39 "HgN/A
3:50 PM48 °FPassing clouds.25 mph50%29.39 "HgN/A
2:50 PM50 °FPassing clouds.28 mph50%29.36 "HgN/A
1:50 PM50 °FScattered clouds.30 mph47%29.36 "HgN/A
12:50 PM50 °FScattered clouds.29 mph47%29.36 "HgN/A
11:50 AM48 °FPartly sunny.25 mph54%29.36 "HgN/A
10:50 AM46 °FSunny.21 mph53%29.36 "Hg10 mi
9:50 AM46 °FSunny.22 mph66%29.36 "Hg10 mi
8:50 AM45 °FSunny.18 mph71%29.33 "Hg10 mi
7:50 AM45 °FClear.14 mph71%29.33 "Hg10 mi
6:50 AM45 °FPassing clouds.17 mph71%29.33 "HgN/A
5:50 AM43 °FClear.22 mph81%29.33 "Hg10 mi
4:50 AM43 °FClear.18 mph81%29.33 "Hg10 mi
3:50 AM43 °FClear.31 mph81%29.33 "Hg10 mi
2:50 AM43 °FClear.33 mph81%29.39 "Hg10 mi
1:50 AM45 °FClear.31 mph71%29.42 "Hg10 mi
12:50 AM43 °FPartly cloudy.23 mph76%29.47 "HgN/A
11:50 PM
Sep 15
41 °FClear.28 mph81%29.50 "Hg10 mi
10:50 PM41 °FClear.28 mph76%29.53 "Hg10 mi
9:50 PM39 °FClear.26 mph75%29.59 "Hg10 mi
8:50 PM41 °FClear.26 mph70%29.59 "Hg10 mi
7:50 PM43 °FClear.28 mph61%29.62 "Hg10 mi
6:50 PM43 °FSunny.22 mph61%29.65 "Hg10 mi
Weather by CustomWeather, © 2014

See weather overviewHow to use our weather pages